Year,Month,Day,Hour,Minute,Value (Times are PST for temperature in C)
2012,10,08,00,00,8.20
2012,10,08,00,01,8.10
2012,10,08,00,02,8.10
2012,10,08,00,03,8.10
2012,10,08,00,04,8.10
2012,10,08,00,05,8.10
2012,10,08,00,06,8.00
2012,10,08,00,07,8.00
2012,10,08,00,08,8.00
2012,10,08,00,09,8.00
2012,10,08,00,10,7.90
2012,10,08,00,11,7.90
2012,10,08,00,12,7.90
2012,10,08,00,13,7.90
2012,10,08,00,14,7.90
2012,10,08,00,15,7.90
2012,10,08,00,16,7.90
2012,10,08,00,17,7.80
2012,10,08,00,18,7.80
2012,10,08,00,19,7.80
2012,10,08,00,20,7.80
2012,10,08,00,21,7.80
2012,10,08,00,22,7.80
2012,10,08,00,23,7.80
2012,10,08,00,24,7.80
2012,10,08,00,25,7.80
2012,10,08,00,26,7.80
2012,10,08,00,27,7.80
2012,10,08,00,28,7.70
2012,10,08,00,29,7.70
2012,10,08,00,30,7.70
2012,10,08,00,31,7.70
2012,10,08,00,32,7.70
2012,10,08,00,33,7.70
2012,10,08,00,34,7.70
2012,10,08,00,35,7.70
2012,10,08,00,36,7.60
2012,10,08,00,37,7.60
2012,10,08,00,38,7.60
2012,10,08,00,39,7.60
2012,10,08,00,40,7.60
2012,10,08,00,41,7.60
2012,10,08,00,42,7.60
2012,10,08,00,43,7.50
2012,10,08,00,44,7.50
2012,10,08,00,45,7.50
2012,10,08,00,46,7.50
2012,10,08,00,47,7.40
2012,10,08,00,48,7.40
2012,10,08,00,49,7.40
2012,10,08,00,50,7.40
2012,10,08,00,51,7.40
2012,10,08,00,52,7.30
2012,10,08,00,53,7.30
2012,10,08,00,54,7.30
2012,10,08,00,55,7.30
2012,10,08,00,56,7.30
2012,10,08,00,57,7.20
2012,10,08,00,58,7.20
2012,10,08,00,59,7.20
2012,10,08,01,00,7.20
2012,10,08,01,01,7.20
2012,10,08,01,02,7.20
2012,10,08,01,03,7.20
2012,10,08,01,04,7.20
2012,10,08,01,05,7.20
2012,10,08,01,06,7.20
2012,10,08,01,07,7.20
2012,10,08,01,08,7.20
2012,10,08,01,09,7.20
2012,10,08,01,10,7.20
2012,10,08,01,11,7.20
2012,10,08,01,12,7.20
2012,10,08,01,13,7.20
2012,10,08,01,14,7.20
2012,10,08,01,15,7.10
2012,10,08,01,16,7.10
2012,10,08,01,17,7.10
2012,10,08,01,18,7.10
2012,10,08,01,19,7.10
2012,10,08,01,20,7.10
2012,10,08,01,21,7.10
2012,10,08,01,22,7.00
2012,10,08,01,23,7.00
2012,10,08,01,24,7.00
2012,10,08,01,25,7.00
2012,10,08,01,26,7.00
2012,10,08,01,27,7.00
2012,10,08,01,28,7.00
2012,10,08,01,29,7.00
2012,10,08,01,30,7.00
2012,10,08,01,31,6.90
2012,10,08,01,32,6.90
2012,10,08,01,33,6.90
2012,10,08,01,34,6.90
2012,10,08,01,35,6.90
2012,10,08,01,36,6.90
2012,10,08,01,37,6.90
2012,10,08,01,38,6.90
2012,10,08,01,39,6.90
2012,10,08,01,40,6.90
2012,10,08,01,41,6.90
2012,10,08,01,42,6.90
2012,10,08,01,43,6.80
2012,10,08,01,44,6.80
2012,10,08,01,45,6.90
2012,10,08,01,46,6.90
2012,10,08,01,47,6.80
2012,10,08,01,48,6.90
2012,10,08,01,49,6.80
2012,10,08,01,50,6.80
2012,10,08,01,51,6.80
2012,10,08,01,52,6.80
2012,10,08,01,53,6.80
2012,10,08,01,54,6.80
2012,10,08,01,55,6.80
2012,10,08,01,56,6.80
2012,10,08,01,57,6.80
2012,10,08,01,58,6.80
2012,10,08,01,59,6.80
2012,10,08,02,00,6.80
2012,10,08,02,01,6.80
2012,10,08,02,02,6.80
2012,10,08,02,03,6.70
2012,10,08,02,04,6.70
2012,10,08,02,05,6.70
2012,10,08,02,06,6.70
2012,10,08,02,07,6.70
2012,10,08,02,08,6.70
2012,10,08,02,09,6.70
2012,10,08,02,10,6.70
2012,10,08,02,11,6.70
2012,10,08,02,12,6.70
2012,10,08,02,13,6.70
2012,10,08,02,14,6.70
2012,10,08,02,15,6.70
2012,10,08,02,16,6.60
2012,10,08,02,17,6.60
2012,10,08,02,18,6.60
2012,10,08,02,19,6.60
2012,10,08,02,20,6.60
2012,10,08,02,21,6.60
2012,10,08,02,22,6.60
2012,10,08,02,23,6.60
2012,10,08,02,24,6.60
2012,10,08,02,25,6.60
2012,10,08,02,26,6.60
2012,10,08,02,27,6.60
2012,10,08,02,28,6.60
2012,10,08,02,29,6.50
2012,10,08,02,30,6.50
2012,10,08,02,31,6.50
2012,10,08,02,32,6.50
2012,10,08,02,33,6.50
2012,10,08,02,34,6.50
2012,10,08,02,35,6.50
2012,10,08,02,36,6.50
2012,10,08,02,37,6.50
2012,10,08,02,38,6.50
2012,10,08,02,39,6.50
2012,10,08,02,40,6.40
2012,10,08,02,41,6.40
2012,10,08,02,42,6.40
2012,10,08,02,43,6.40
2012,10,08,02,44,6.40
2012,10,08,02,45,6.40
2012,10,08,02,46,6.40
2012,10,08,02,47,6.40
2012,10,08,02,48,6.40
2012,10,08,02,49,6.40
2012,10,08,02,50,6.30
2012,10,08,02,51,6.30
2012,10,08,02,52,6.30
2012,10,08,02,53,6.30
2012,10,08,02,54,6.30
2012,10,08,02,55,6.30
2012,10,08,02,56,6.30
2012,10,08,02,57,6.30
2012,10,08,02,58,6.20
2012,10,08,02,59,6.20
2012,10,08,03,00,6.20
2012,10,08,03,01,6.20
2012,10,08,03,02,6.20
2012,10,08,03,03,6.20
2012,10,08,03,04,6.20
2012,10,08,03,05,6.20
2012,10,08,03,06,6.20
2012,10,08,03,07,6.20
2012,10,08,03,08,6.10
2012,10,08,03,09,6.10
2012,10,08,03,10,6.10
2012,10,08,03,11,6.10
2012,10,08,03,12,6.10
2012,10,08,03,13,6.10
2012,10,08,03,14,6.10
2012,10,08,03,15,6.10
2012,10,08,03,16,6.10
2012,10,08,03,17,6.10
2012,10,08,03,18,6.10
2012,10,08,03,19,6.10
2012,10,08,03,20,6.10
2012,10,08,03,21,6.10
2012,10,08,03,22,6.10
2012,10,08,03,23,6.10
2012,10,08,03,24,6.10
2012,10,08,03,25,6.00
2012,10,08,03,26,6.00
2012,10,08,03,27,6.00
2012,10,08,03,28,6.00
2012,10,08,03,29,6.00
2012,10,08,03,30,5.90
2012,10,08,03,31,5.90
2012,10,08,03,32,5.90
2012,10,08,03,33,5.90
2012,10,08,03,34,5.90
2012,10,08,03,35,5.90
2012,10,08,03,36,5.90
2012,10,08,03,37,5.90
2012,10,08,03,38,5.80
2012,10,08,03,39,5.90
2012,10,08,03,40,5.90
2012,10,08,03,41,5.80
2012,10,08,03,42,5.80
2012,10,08,03,43,5.80
2012,10,08,03,44,5.80
2012,10,08,03,45,5.80
2012,10,08,03,46,5.80
2012,10,08,03,47,5.80
2012,10,08,03,48,5.80
2012,10,08,03,49,5.80
2012,10,08,03,50,5.80
2012,10,08,03,51,5.80
2012,10,08,03,52,5.80
2012,10,08,03,53,5.70
2012,10,08,03,54,5.70
2012,10,08,03,55,5.70
2012,10,08,03,56,5.70
2012,10,08,03,57,5.70
2012,10,08,03,58,5.70
2012,10,08,03,59,5.70
2012,10,08,04,00,5.70
2012,10,08,04,01,5.70
2012,10,08,04,02,5.70
2012,10,08,04,03,5.70
2012,10,08,04,04,5.70
2012,10,08,04,05,5.70
2012,10,08,04,06,5.70
2012,10,08,04,07,5.70
2012,10,08,04,08,5.70
2012,10,08,04,09,5.70
2012,10,08,04,10,5.60
2012,10,08,04,11,5.60
2012,10,08,04,12,5.60
2012,10,08,04,13,5.60
2012,10,08,04,14,5.60
2012,10,08,04,15,5.60
2012,10,08,04,16,5.50
2012,10,08,04,17,5.50
2012,10,08,04,18,5.50
2012,10,08,04,19,5.50
2012,10,08,04,20,5.50
2012,10,08,04,21,5.40
2012,10,08,04,22,5.40
2012,10,08,04,23,5.40
2012,10,08,04,24,5.40
2012,10,08,04,25,5.40
2012,10,08,04,26,5.40
2012,10,08,04,27,5.40
2012,10,08,04,28,5.40
2012,10,08,04,29,5.40
2012,10,08,04,30,5.40
2012,10,08,04,31,5.40
2012,10,08,04,32,5.40
2012,10,08,04,33,5.40
2012,10,08,04,34,5.40
2012,10,08,04,35,5.40
2012,10,08,04,36,5.40
2012,10,08,04,37,5.40
2012,10,08,04,38,5.40
2012,10,08,04,39,5.40
2012,10,08,04,40,5.40
2012,10,08,04,41,5.40
2012,10,08,04,42,5.40
2012,10,08,04,43,5.40
2012,10,08,04,44,5.40
2012,10,08,04,45,5.40
2012,10,08,04,46,5.30
2012,10,08,04,47,5.30
2012,10,08,04,48,5.30
2012,10,08,04,49,5.30
2012,10,08,04,50,5.30
2012,10,08,04,51,5.30
2012,10,08,04,52,5.30
2012,10,08,04,53,5.30
2012,10,08,04,54,5.30
2012,10,08,04,55,5.20
2012,10,08,04,56,5.20
2012,10,08,04,57,5.20
2012,10,08,04,58,5.20
2012,10,08,04,59,5.20
2012,10,08,05,00,5.20
2012,10,08,05,01,5.20
2012,10,08,05,02,5.20
2012,10,08,05,03,5.10
2012,10,08,05,04,5.10
2012,10,08,05,05,5.10
2012,10,08,05,06,5.10
2012,10,08,05,07,5.10
2012,10,08,05,08,5.10
2012,10,08,05,09,5.10
2012,10,08,05,10,5.10
2012,10,08,05,11,5.10
2012,10,08,05,12,5.10
2012,10,08,05,13,5.10
2012,10,08,05,14,5.10
2012,10,08,05,15,5.10
2012,10,08,05,16,5.10
2012,10,08,05,17,5.10
2012,10,08,05,18,5.10
2012,10,08,05,19,5.10
2012,10,08,05,20,5.10
2012,10,08,05,21,5.10
2012,10,08,05,22,5.10
2012,10,08,05,23,5.10
2012,10,08,05,24,5.10
2012,10,08,05,25,5.10
2012,10,08,05,26,5.10
2012,10,08,05,27,5.00
2012,10,08,05,28,5.00
2012,10,08,05,29,5.00
2012,10,08,05,30,5.00
2012,10,08,05,31,5.00
2012,10,08,05,32,5.00
2012,10,08,05,33,5.00
2012,10,08,05,34,5.00
2012,10,08,05,35,5.00
2012,10,08,05,36,5.00
2012,10,08,05,37,5.00
2012,10,08,05,38,4.90
2012,10,08,05,39,4.90
2012,10,08,05,40,4.90
2012,10,08,05,41,4.90
2012,10,08,05,42,4.90
2012,10,08,05,43,4.90
2012,10,08,05,44,4.90
2012,10,08,05,45,4.90
2012,10,08,05,46,4.90
2012,10,08,05,47,4.90
2012,10,08,05,48,4.90
2012,10,08,05,49,4.90
2012,10,08,05,50,4.90
2012,10,08,05,51,4.90
2012,10,08,05,52,4.90
2012,10,08,05,53,4.90
2012,10,08,05,54,4.90
2012,10,08,05,55,4.90
2012,10,08,05,56,4.90
2012,10,08,05,57,4.90
2012,10,08,05,58,4.90
2012,10,08,05,59,4.90
2012,10,08,06,00,4.90
2012,10,08,06,01,4.90
2012,10,08,06,02,4.90
2012,10,08,06,03,4.90
2012,10,08,06,04,4.90
2012,10,08,06,05,4.80
2012,10,08,06,06,4.80
2012,10,08,06,07,4.80
2012,10,08,06,08,4.80
2012,10,08,06,09,4.80
2012,10,08,06,10,4.80
2012,10,08,06,11,4.80
2012,10,08,06,12,4.80
2012,10,08,06,13,4.80
2012,10,08,06,14,4.80
2012,10,08,06,15,4.80
2012,10,08,06,16,4.80
2012,10,08,06,17,4.70
2012,10,08,06,18,4.70
2012,10,08,06,19,4.70
2012,10,08,06,20,4.70
2012,10,08,06,21,4.70
2012,10,08,06,22,4.70
2012,10,08,06,23,4.70
2012,10,08,06,24,4.70
2012,10,08,06,25,4.70
2012,10,08,06,26,4.70
2012,10,08,06,27,4.70
2012,10,08,06,28,4.70
2012,10,08,06,29,4.70
2012,10,08,06,30,4.70
2012,10,08,06,31,4.70
2012,10,08,06,32,4.70
2012,10,08,06,33,4.70
2012,10,08,06,34,4.70
2012,10,08,06,35,4.70
2012,10,08,06,36,4.70
2012,10,08,06,37,4.70
2012,10,08,06,38,4.70
2012,10,08,06,39,4.70
2012,10,08,06,40,4.70
2012,10,08,06,41,4.70
2012,10,08,06,42,4.70
2012,10,08,06,43,4.70
2012,10,08,06,44,4.70
2012,10,08,06,45,4.70
2012,10,08,06,46,4.70
2012,10,08,06,47,4.70
2012,10,08,06,48,4.70
2012,10,08,06,49,4.70
2012,10,08,06,50,4.70
2012,10,08,06,51,4.70
2012,10,08,06,52,4.70
2012,10,08,06,53,4.70
2012,10,08,06,54,4.70
2012,10,08,06,55,4.70
2012,10,08,06,56,4.70
2012,10,08,06,57,4.70
2012,10,08,06,58,4.70
2012,10,08,06,59,4.70
2012,10,08,07,00,4.70
2012,10,08,07,01,4.70
2012,10,08,07,02,4.70
2012,10,08,07,03,4.70
2012,10,08,07,04,4.70
2012,10,08,07,05,4.70
2012,10,08,07,06,4.70
2012,10,08,07,07,4.60
2012,10,08,07,08,4.60
2012,10,08,07,09,4.60
2012,10,08,07,10,4.60
2012,10,08,07,11,4.60
2012,10,08,07,12,4.60
2012,10,08,07,13,4.60
2012,10,08,07,14,4.60
2012,10,08,07,15,4.60
2012,10,08,07,16,4.60
2012,10,08,07,17,4.60
2012,10,08,07,18,4.60
2012,10,08,07,19,4.60
2012,10,08,07,20,4.60
2012,10,08,07,21,4.60
2012,10,08,07,22,4.60
2012,10,08,07,23,4.60
2012,10,08,07,24,4.60
2012,10,08,07,25,4.60
2012,10,08,07,26,4.50
2012,10,08,07,27,4.50
2012,10,08,07,28,4.50
2012,10,08,07,29,4.50
2012,10,08,07,30,4.50
2012,10,08,07,31,4.50
2012,10,08,07,32,4.50
2012,10,08,07,33,4.50
2012,10,08,07,34,4.50
2012,10,08,07,35,4.50
2012,10,08,07,36,4.50
2012,10,08,07,37,4.50
2012,10,08,07,38,4.50
2012,10,08,07,39,4.50
2012,10,08,07,40,4.50
2012,10,08,07,41,4.50
2012,10,08,07,42,4.50
2012,10,08,07,43,4.50
2012,10,08,07,44,4.50
2012,10,08,07,45,4.50
2012,10,08,07,46,4.50
2012,10,08,07,47,4.50
2012,10,08,07,48,4.50
2012,10,08,07,49,4.50
2012,10,08,07,50,4.50
2012,10,08,07,51,4.50
2012,10,08,07,52,4.50
2012,10,08,07,53,4.50
2012,10,08,07,54,4.50
2012,10,08,07,55,4.50
2012,10,08,07,56,4.60
2012,10,08,07,57,4.60
2012,10,08,07,58,4.60
2012,10,08,07,59,4.60
2012,10,08,08,00,4.60
2012,10,08,08,01,4.60
2012,10,08,08,02,4.60
2012,10,08,08,03,4.60
2012,10,08,08,04,4.60
2012,10,08,08,05,4.60
2012,10,08,08,06,4.60
2012,10,08,08,07,4.50
2012,10,08,08,08,4.60
2012,10,08,08,09,4.60
2012,10,08,08,10,4.60
2012,10,08,08,11,4.60
2012,10,08,08,12,4.60
2012,10,08,08,13,4.60
2012,10,08,08,14,4.60
2012,10,08,08,15,4.60
2012,10,08,08,16,4.60
2012,10,08,08,17,4.60
2012,10,08,08,18,4.60
2012,10,08,08,19,4.60
2012,10,08,08,20,4.70
2012,10,08,08,21,4.70
2012,10,08,08,22,4.70
2012,10,08,08,23,4.70
2012,10,08,08,24,4.70
2012,10,08,08,25,4.80
2012,10,08,08,26,4.80
2012,10,08,08,27,4.80
2012,10,08,08,28,4.80
2012,10,08,08,29,4.90
2012,10,08,08,30,4.90
2012,10,08,08,31,4.90
2012,10,08,08,32,5.00
2012,10,08,08,33,5.00
2012,10,08,08,34,5.10
2012,10,08,08,35,5.10
2012,10,08,08,36,5.20
2012,10,08,08,37,5.20
2012,10,08,08,38,5.20
2012,10,08,08,39,5.30
2012,10,08,08,40,5.30
2012,10,08,08,41,5.30
2012,10,08,08,42,5.30
2012,10,08,08,43,5.40
2012,10,08,08,44,5.40
2012,10,08,08,45,5.40
2012,10,08,08,46,5.40
2012,10,08,08,47,5.40
2012,10,08,08,48,5.50
2012,10,08,08,49,5.50
2012,10,08,08,50,5.50
2012,10,08,08,51,5.60
2012,10,08,08,52,5.60
2012,10,08,08,53,5.70
2012,10,08,08,54,5.70
2012,10,08,08,55,5.80
2012,10,08,08,56,5.90
2012,10,08,08,57,5.90
2012,10,08,08,58,6.00
2012,10,08,08,59,6.10
2012,10,08,09,00,6.20
2012,10,08,09,01,6.20
2012,10,08,09,02,6.30
2012,10,08,09,03,6.40
2012,10,08,09,04,6.40
2012,10,08,09,05,6.50
2012,10,08,09,06,6.60
2012,10,08,09,07,6.70
2012,10,08,09,08,6.80
2012,10,08,09,09,6.90
2012,10,08,09,10,6.90
2012,10,08,09,11,7.00
2012,10,08,09,12,7.00
2012,10,08,09,13,7.10
2012,10,08,09,14,7.20
2012,10,08,09,15,7.20
2012,10,08,09,16,7.20
2012,10,08,09,17,7.30
2012,10,08,09,18,7.30
2012,10,08,09,19,7.40
2012,10,08,09,20,7.50
2012,10,08,09,21,7.60
2012,10,08,09,22,7.60
2012,10,08,09,23,7.80
2012,10,08,09,24,7.80
2012,10,08,09,25,8.00
2012,10,08,09,26,8.00
2012,10,08,09,27,8.20
2012,10,08,09,28,8.30
2012,10,08,09,29,8.40
2012,10,08,09,30,8.50
2012,10,08,09,31,8.70
2012,10,08,09,32,8.80
2012,10,08,09,33,8.90
2012,10,08,09,34,9.10
2012,10,08,09,35,9.20
2012,10,08,09,36,9.30
2012,10,08,09,37,9.40
2012,10,08,09,38,9.50
2012,10,08,09,39,9.60
2012,10,08,09,40,9.80
2012,10,08,09,41,9.90
2012,10,08,09,42,10.10
2012,10,08,09,43,10.20
2012,10,08,09,44,10.40
2012,10,08,09,45,10.50
2012,10,08,09,46,10.70
2012,10,08,09,47,10.80
2012,10,08,09,48,11.00
2012,10,08,09,49,11.10
2012,10,08,09,50,11.30
2012,10,08,09,51,11.40
2012,10,08,09,52,11.50
2012,10,08,09,53,11.60
2012,10,08,09,54,11.70
2012,10,08,09,55,11.80
2012,10,08,09,56,12.00
2012,10,08,09,57,12.10
2012,10,08,09,58,12.20
2012,10,08,09,59,12.30
2012,10,08,10,00,12.40
2012,10,08,10,01,12.50
2012,10,08,10,02,12.60
2012,10,08,10,03,12.80
2012,10,08,10,04,12.90
2012,10,08,10,05,13.00
2012,10,08,10,06,13.10
2012,10,08,10,07,13.20
2012,10,08,10,08,13.30
2012,10,08,10,09,13.30
2012,10,08,10,10,13.40
2012,10,08,10,11,13.50
2012,10,08,10,12,13.60
2012,10,08,10,13,13.60
2012,10,08,10,14,13.70
2012,10,08,10,15,13.80
2012,10,08,10,16,13.80
2012,10,08,10,17,13.80
2012,10,08,10,18,13.90
2012,10,08,10,19,13.90
2012,10,08,10,20,14.00
2012,10,08,10,21,14.00
2012,10,08,10,22,14.00
2012,10,08,10,23,14.00
2012,10,08,10,24,14.00
2012,10,08,10,25,14.00
2012,10,08,10,26,14.00
2012,10,08,10,27,14.00
2012,10,08,10,28,14.10
2012,10,08,10,29,14.10
2012,10,08,10,30,14.20
2012,10,08,10,31,14.20
2012,10,08,10,32,14.30
2012,10,08,10,33,14.30
2012,10,08,10,34,14.40
2012,10,08,10,35,14.50
2012,10,08,10,36,14.60
2012,10,08,10,37,14.70
2012,10,08,10,38,14.80
2012,10,08,10,39,14.90
2012,10,08,10,40,15.00
2012,10,08,10,41,15.00
2012,10,08,10,42,15.00
2012,10,08,10,43,15.00
2012,10,08,10,44,15.00
2012,10,08,10,45,15.10
2012,10,08,10,46,15.20
2012,10,08,10,47,15.30
2012,10,08,10,48,15.30
2012,10,08,10,49,15.40
2012,10,08,10,50,15.50
2012,10,08,10,51,15.50
2012,10,08,10,52,15.60
2012,10,08,10,53,15.70
2012,10,08,10,54,15.80
2012,10,08,10,55,15.90
2012,10,08,10,56,16.00
2012,10,08,10,57,16.00
2012,10,08,10,58,16.10
2012,10,08,10,59,16.20
2012,10,08,11,00,16.30
2012,10,08,11,01,16.40
2012,10,08,11,02,16.60
2012,10,08,11,03,16.70
2012,10,08,11,04,16.80
2012,10,08,11,05,16.90
2012,10,08,11,06,17.00
2012,10,08,11,07,17.10
2012,10,08,11,08,17.20
2012,10,08,11,09,17.30
2012,10,08,11,10,17.40
2012,10,08,11,11,17.50
2012,10,08,11,12,17.50
2012,10,08,11,13,17.60
2012,10,08,11,14,17.60
2012,10,08,11,15,17.70
2012,10,08,11,16,17.70
2012,10,08,11,17,17.80
2012,10,08,11,18,17.80
2012,10,08,11,19,17.90
2012,10,08,11,20,18.00
2012,10,08,11,21,18.00
2012,10,08,11,22,18.10
2012,10,08,11,23,18.20
2012,10,08,11,24,18.20
2012,10,08,11,25,18.30
2012,10,08,11,26,18.40
2012,10,08,11,27,18.50
2012,10,08,11,28,18.70
2012,10,08,11,29,18.80
2012,10,08,11,30,18.80
2012,10,08,11,31,18.90
2012,10,08,11,32,19.00
2012,10,08,11,33,19.00
2012,10,08,11,34,19.10
2012,10,08,11,35,19.10
2012,10,08,11,36,19.00
2012,10,08,11,37,19.00
2012,10,08,11,38,18.90
2012,10,08,11,39,18.90
2012,10,08,11,40,18.80
2012,10,08,11,41,18.70
2012,10,08,11,42,18.70
2012,10,08,11,43,18.70
2012,10,08,11,44,18.70
2012,10,08,11,45,18.70
2012,10,08,11,46,18.70
2012,10,08,11,47,18.70
2012,10,08,11,48,18.70
2012,10,08,11,49,18.70
2012,10,08,11,50,18.70
2012,10,08,11,51,18.70
2012,10,08,11,52,18.70
2012,10,08,11,53,18.70
2012,10,08,11,54,18.80
2012,10,08,11,55,18.80
2012,10,08,11,56,18.80
2012,10,08,11,57,18.80
2012,10,08,11,58,18.80
2012,10,08,11,59,18.80
2012,10,08,12,00,18.80
2012,10,08,12,01,18.80
2012,10,08,12,02,18.80
2012,10,08,12,03,18.90
2012,10,08,12,04,18.90
2012,10,08,12,05,19.00
2012,10,08,12,06,19.00
2012,10,08,12,07,19.00
2012,10,08,12,08,19.10
2012,10,08,12,09,19.10
2012,10,08,12,10,19.10
2012,10,08,12,11,19.20
2012,10,08,12,12,19.30
2012,10,08,12,13,19.30
2012,10,08,12,14,19.30
2012,10,08,12,15,19.30
2012,10,08,12,16,19.30
2012,10,08,12,17,19.30
2012,10,08,12,18,19.30
2012,10,08,12,19,19.30
2012,10,08,12,20,19.30
2012,10,08,12,21,19.30
2012,10,08,12,22,19.30
2012,10,08,12,23,19.40
2012,10,08,12,24,19.40
2012,10,08,12,25,19.40
2012,10,08,12,26,19.40
2012,10,08,12,27,19.50
2012,10,08,12,28,19.50
2012,10,08,12,29,19.50
2012,10,08,12,30,19.50
2012,10,08,12,31,19.60
2012,10,08,12,32,19.60
2012,10,08,12,33,19.60
2012,10,08,12,34,19.60
2012,10,08,12,35,19.60
2012,10,08,12,36,19.70
2012,10,08,12,37,19.70
2012,10,08,12,38,19.80
2012,10,08,12,39,19.90
2012,10,08,12,40,20.00
2012,10,08,12,41,20.10
2012,10,08,12,42,20.10
2012,10,08,12,43,20.20
2012,10,08,12,44,20.20
2012,10,08,12,45,20.20
2012,10,08,12,46,20.20
2012,10,08,12,47,20.20
2012,10,08,12,48,20.30
2012,10,08,12,49,20.40
2012,10,08,12,50,20.50
2012,10,08,12,51,20.60
2012,10,08,12,52,20.70
2012,10,08,12,53,20.80
2012,10,08,12,54,20.80
2012,10,08,12,55,20.90
2012,10,08,12,56,20.90
2012,10,08,12,57,21.00
2012,10,08,12,58,21.00
2012,10,08,12,59,21.10
2012,10,08,13,00,21.20
2012,10,08,13,01,21.30
2012,10,08,13,02,21.30
2012,10,08,13,03,21.30
2012,10,08,13,04,21.40
2012,10,08,13,05,21.40
2012,10,08,13,06,21.50
2012,10,08,13,07,21.50
2012,10,08,13,08,21.40
2012,10,08,13,09,21.30
2012,10,08,13,10,21.30
2012,10,08,13,11,21.20
2012,10,08,13,12,21.10
2012,10,08,13,13,21.10
2012,10,08,13,14,21.10
2012,10,08,13,15,21.10
2012,10,08,13,16,21.10
2012,10,08,13,17,21.10
2012,10,08,13,18,21.10
2012,10,08,13,19,21.10
2012,10,08,13,20,21.10
2012,10,08,13,21,21.20
2012,10,08,13,22,21.20
2012,10,08,13,23,21.20
2012,10,08,13,24,21.30
2012,10,08,13,25,21.30
2012,10,08,13,26,21.40
2012,10,08,13,27,21.40
2012,10,08,13,28,21.50
2012,10,08,13,29,21.40
2012,10,08,13,30,21.40
2012,10,08,13,31,21.40
2012,10,08,13,32,21.40
2012,10,08,13,33,21.40
2012,10,08,13,34,21.50
2012,10,08,13,35,21.50
2012,10,08,13,36,21.50
2012,10,08,13,37,21.50
2012,10,08,13,38,21.50
2012,10,08,13,39,21.50
2012,10,08,13,40,21.50
2012,10,08,13,41,21.50
2012,10,08,13,42,21.60
2012,10,08,13,43,21.70
2012,10,08,13,44,21.80
2012,10,08,13,45,21.90
2012,10,08,13,46,22.00
2012,10,08,13,47,22.10
2012,10,08,13,48,22.20
2012,10,08,13,49,22.20
2012,10,08,13,50,22.20
2012,10,08,13,51,22.20
2012,10,08,13,52,22.30
2012,10,08,13,53,22.30
2012,10,08,13,54,22.30
2012,10,08,13,55,22.20
2012,10,08,13,56,22.30
2012,10,08,13,57,22.30
2012,10,08,13,58,22.40
2012,10,08,13,59,22.50
2012,10,08,14,00,22.60
2012,10,08,14,01,22.70
2012,10,08,14,02,22.80
2012,10,08,14,03,22.90
2012,10,08,14,04,23.00
2012,10,08,14,05,23.10
2012,10,08,14,06,23.20
2012,10,08,14,07,23.30
2012,10,08,14,08,23.30
2012,10,08,14,09,23.30
2012,10,08,14,10,23.30
2012,10,08,14,11,23.30
2012,10,08,14,12,23.30
2012,10,08,14,13,23.30
2012,10,08,14,14,23.20
2012,10,08,14,15,23.20
2012,10,08,14,16,23.00
2012,10,08,14,17,22.90
2012,10,08,14,18,22.90
2012,10,08,14,19,22.80
2012,10,08,14,20,22.80
2012,10,08,14,21,22.70
2012,10,08,14,22,22.70
2012,10,08,14,23,22.70
2012,10,08,14,24,22.70
2012,10,08,14,25,22.70
2012,10,08,14,26,22.80
2012,10,08,14,27,22.80
2012,10,08,14,28,22.90
2012,10,08,14,29,22.90
2012,10,08,14,30,23.00
2012,10,08,14,31,23.10
2012,10,08,14,32,23.20
2012,10,08,14,33,23.20
2012,10,08,14,34,23.30
2012,10,08,14,35,23.30
2012,10,08,14,36,23.30
2012,10,08,14,37,23.30
2012,10,08,14,38,23.30
2012,10,08,14,39,23.30
2012,10,08,14,40,23.40
2012,10,08,14,41,23.40
2012,10,08,14,42,23.40
2012,10,08,14,43,23.50
2012,10,08,14,44,23.50
2012,10,08,14,45,23.60
2012,10,08,14,46,23.60
2012,10,08,14,47,23.50
2012,10,08,14,48,23.60
2012,10,08,14,49,23.60
2012,10,08,14,50,23.60
2012,10,08,14,51,23.60
2012,10,08,14,52,23.60
2012,10,08,14,53,23.60
2012,10,08,14,54,23.70
2012,10,08,14,55,23.70
2012,10,08,14,56,23.80
2012,10,08,14,57,23.90
2012,10,08,14,58,24.00
2012,10,08,14,59,24.10
2012,10,08,15,00,24.10
2012,10,08,15,01,24.10
2012,10,08,15,02,24.10
2012,10,08,15,03,24.10
2012,10,08,15,04,24.10
2012,10,08,15,05,24.10
2012,10,08,15,06,24.20
2012,10,08,15,07,24.20
2012,10,08,15,08,24.20
2012,10,08,15,09,24.20
2012,10,08,15,10,24.20
2012,10,08,15,11,24.20
2012,10,08,15,12,24.30
2012,10,08,15,13,24.30
2012,10,08,15,14,24.40
2012,10,08,15,15,24.40
2012,10,08,15,16,24.50
2012,10,08,15,17,24.50
2012,10,08,15,18,24.60
2012,10,08,15,19,24.60
2012,10,08,15,20,24.60
2012,10,08,15,21,24.60
2012,10,08,15,22,24.70
2012,10,08,15,23,24.70
2012,10,08,15,24,24.70
2012,10,08,15,25,24.70
2012,10,08,15,26,24.70
2012,10,08,15,27,24.60
2012,10,08,15,28,24.60
2012,10,08,15,29,24.60
2012,10,08,15,30,24.60
2012,10,08,15,31,24.60
2012,10,08,15,32,24.60
2012,10,08,15,33,24.60
2012,10,08,15,34,24.60
2012,10,08,15,35,24.60
2012,10,08,15,36,24.60
2012,10,08,15,37,24.60
2012,10,08,15,38,24.60
2012,10,08,15,39,24.60
2012,10,08,15,40,24.60
2012,10,08,15,41,24.60
2012,10,08,15,42,24.60
2012,10,08,15,43,24.60
2012,10,08,15,44,24.60
2012,10,08,15,45,24.50
2012,10,08,15,46,24.50
2012,10,08,15,47,24.50
2012,10,08,15,48,24.50
2012,10,08,15,49,24.40
2012,10,08,15,50,24.40
2012,10,08,15,51,24.40
2012,10,08,15,52,24.40
2012,10,08,15,53,24.40
2012,10,08,15,54,24.40
2012,10,08,15,55,24.40
2012,10,08,15,56,24.40
2012,10,08,15,57,24.40
2012,10,08,15,58,24.40
2012,10,08,15,59,24.30
2012,10,08,16,00,24.30
2012,10,08,16,01,24.30
2012,10,08,16,02,24.30
2012,10,08,16,03,24.20
2012,10,08,16,04,24.20
2012,10,08,16,05,24.10
2012,10,08,16,06,24.10
2012,10,08,16,07,24.00
2012,10,08,16,08,24.00
2012,10,08,16,09,23.90
2012,10,08,16,10,23.80
2012,10,08,16,11,23.70
2012,10,08,16,12,23.60
2012,10,08,16,13,23.60
2012,10,08,16,14,23.60
2012,10,08,16,15,23.50
2012,10,08,16,16,23.50
2012,10,08,16,17,23.50
2012,10,08,16,18,23.50
2012,10,08,16,19,23.40
2012,10,08,16,20,23.40
2012,10,08,16,21,23.40
2012,10,08,16,22,23.40
2012,10,08,16,23,23.40
2012,10,08,16,24,23.40
2012,10,08,16,25,23.40
2012,10,08,16,26,23.40
2012,10,08,16,27,23.40
2012,10,08,16,28,23.40
2012,10,08,16,29,23.50
2012,10,08,16,30,23.50
2012,10,08,16,31,23.50
2012,10,08,16,32,23.50
2012,10,08,16,33,23.60
2012,10,08,16,34,23.60
2012,10,08,16,35,23.60
2012,10,08,16,36,23.60
2012,10,08,16,37,23.60
2012,10,08,16,38,23.60
2012,10,08,16,39,23.50
2012,10,08,16,40,23.40
2012,10,08,16,41,23.40
2012,10,08,16,42,23.30
2012,10,08,16,43,23.30
2012,10,08,16,44,23.30
2012,10,08,16,45,23.20
2012,10,08,16,46,23.20
2012,10,08,16,47,23.20
2012,10,08,16,48,23.10
2012,10,08,16,49,23.10
2012,10,08,16,50,23.10
2012,10,08,16,51,23.00
2012,10,08,16,52,22.90
2012,10,08,16,53,22.90
2012,10,08,16,54,22.80
2012,10,08,16,55,22.80
2012,10,08,16,56,22.80
2012,10,08,16,57,22.80
2012,10,08,16,58,22.70
2012,10,08,16,59,22.70
2012,10,08,17,00,22.70
2012,10,08,17,01,22.70
2012,10,08,17,02,22.70
2012,10,08,17,03,22.70
2012,10,08,17,04,22.70
2012,10,08,17,05,22.60
2012,10,08,17,06,22.60
2012,10,08,17,07,22.60
2012,10,08,17,08,22.60
2012,10,08,17,09,22.60
2012,10,08,17,10,22.50
2012,10,08,17,11,22.50
2012,10,08,17,12,22.40
2012,10,08,17,13,22.40
2012,10,08,17,14,22.40
2012,10,08,17,15,22.40
2012,10,08,17,16,22.40
2012,10,08,17,17,22.30
2012,10,08,17,18,22.30
2012,10,08,17,19,22.30
2012,10,08,17,20,22.30
2012,10,08,17,21,22.20
2012,10,08,17,22,22.20
2012,10,08,17,23,22.20
2012,10,08,17,24,22.20
2012,10,08,17,25,22.10
2012,10,08,17,26,22.10
2012,10,08,17,27,22.10
2012,10,08,17,28,22.10
2012,10,08,17,29,22.00
2012,10,08,17,30,22.00
2012,10,08,17,31,22.00
2012,10,08,17,32,21.90
2012,10,08,17,33,21.90
2012,10,08,17,34,21.90
2012,10,08,17,35,21.80
2012,10,08,17,36,21.80
2012,10,08,17,37,21.80
2012,10,08,17,38,21.80
2012,10,08,17,39,21.70
2012,10,08,17,40,21.70
2012,10,08,17,41,21.60
2012,10,08,17,42,21.60
2012,10,08,17,43,21.60
2012,10,08,17,44,21.50